Location: Newark
(45.5000°N, 11.4167°E)
Time: 14:36:35
(UTC+00:00)

Vanguard 2 - Pass Details

Date: 30 August 2019
Orbit: 554 x 2937 km, 32.9° (Epoch: 18 September)

Event Time Altitude Azimuth Distance (km) Brightness Sun altitude
Rises 13:52:20 0° 256° (WSW) 3,455 11.7 40.3°
Reaches altitude 10° 13:55:06 10° 240° (WSW) 2,787 11.6 39.9°
Maximum altitude 14:00:11 22° 192° (SSW) 2,517 11.0 39.2°
Drops below altitude 10° 14:07:16 10° 147° (SSE) 4,033 11.3 38.1°
Sets 14:12:22 0° 135° (SE) 5,503 11.8 37.3°
